EW2134 Weather Reports


Display with metric or nautical units.
time (UTC)temp
F
wind
direction
speed
MPH
gust
MPH
rain 1hr
in
rain 24hr
in
rain mn
in
humidity
%
barometer
mb
20180619120341 63 360 5.0 14.0 0.00 3.35 0.32 77 995.8
20180619114841 62 315 8.0 16.0 0.00 3.35 0.32 77 995.5
20180619113345 63 360 9.0 12.0 0.00 3.35 0.32 77 995.5
20180619111856 62 323 8.0 12.0 0.00 3.35 0.32 77 995.5
20180619110356 60 288 3.0 10.0 0.08 3.35 0.32 77 995.2
20180619103351 59 287 1.0 4.0 0.28 3.35 0.32 78 994.9
20180619101851 58 292 2.0 8.0 0.47 3.35 0.32 77 995.0
20180619100341 58 280 3.0 7.0 0.43 3.27 0.31 78 994.7
20180619094842 57 278 8.0 11.0 0.43 3.15 0.28 78 994.9
20180619093429 57 302 3.0 8.0 0.47 3.07 0.27 78 994.9
20180619090345 57 285 4.0 8.0 0.31 2.83 0.22 78 994.9
20180619084928 58 301 3.0 12.0 0.16 2.68 0.19 78 995.0
20180619083343 58 285 3.0 7.0 0.16 2.60 0.17 78 994.2
20180619081847 58 288 7.0 11.0 0.12 2.56 0.17 78 994.6
20180619080353 58 286 7.0 10.0 0.08 2.52 0.16 78 994.6
20180619074850 58 281 5.0 9.0 0.24 2.52 0.16 78 994.4
20180619073345 58 315 2.0 9.0 0.28 2.44 0.14 78 994.5
20180619071846 59 302 3.0 14.0 0.39 2.44 0.14 78 994.8
20180619070350 59 292 8.0 12.0 0.51 2.44 0.14 78 995.0
20180619064900 59 282 11.0 16.0 0.51 2.28 0.11 78 995.0
20180619063341 60 255 9.0 13.0 0.43 2.17 0.09 78 995.0
20180619061852 60 282 8.0 12.0 0.31 2.05 0.06 78 995.2
20180619060357 61 288 6.0 11.0 0.20 1.93 0.04 78 995.3
20180619054855 61 264 7.0 12.0 0.04 1.77 0.01 78 995.7
20180619053340 61 279 9.0 14.0 0.00 1.73 0.00 78 995.9
20180619051853 61 281 5.0 14.0 0.00 1.73 0.00 78 996.2
20180619050401 61 293 7.0 14.0 0.00 1.73 0.00 78 996.4
20180619044852 62 296 8.0 17.0 0.00 1.77 0.00 78 996.7
20180619043353 61 254 8.0 21.0 0.00 1.77 0.00 78 996.9
20180619041857 61 265 11.0 16.0 0.00 1.77 0.00 79 997.2
20180619040354 62 331 12.0 20.0 0.00 1.77 0.00 79 997.3
20180619034947 62 266 9.0 21.0 0.00 1.85 0.00 79 997.5
20180619033345 62 244 10.0 19.0 0.00 1.85 0.00 79 997.6
20180619030346 61 284 9.0 19.0 0.00 1.85 0.00 79 998.6
20180619024850 61 277 10.0 21.0 0.00 1.85 0.37 79 998.9
20180619023349 61 266 8.0 19.0 0.00 1.85 0.37 79 999.3
20180619021850 62 249 13.0 25.0 0.00 1.85 0.37 79 999.7
20180619020357 62 283 13.0 21.0 0.00 1.85 0.37 79 999.6
20180619013344 62 262 11.0 23.0 0.00 1.85 0.37 78 999.9
20180619011906 61 317 10.0 21.0 0.00 1.85 0.37 78 1000.0
20180619010357 61 282 12.0 24.0 0.00 1.85 0.37 78 1000.2
20180619004904 61 269 9.0 21.0 0.00 1.85 0.37 77 1000.4
20180619003348 61 305 11.0 21.0 0.00 1.85 0.37 77 1000.6
20180619001856 61 302 11.0 20.0 0.00 1.85 0.37 77 1000.6
20180619000355 61 279 8.0 18.0 0.00 1.85 0.37 77 1000.8
20180618234901 61 222 10.0 18.0 0.00 1.85 0.37 77 1001.0
20180618233405 60 289 10.0 19.0 0.00 1.85 0.37 77 1001.3
20180618231847 60 271 6.0 16.0 0.00 1.85 0.37 77 1001.4
20180618230355 59 232 8.0 15.0 0.00 1.85 0.37 78 1001.5
20180618224853 59 277 4.0 11.0 0.00 1.85 0.37 78 1001.8
20180618223347 59 250 8.0 14.0 0.08 1.85 0.37 78 1002.2
20180618221845 59 271 6.0 14.0 0.08 1.85 0.37 78 1002.6
20180618220347 59 273 5.0 12.0 0.08 1.85 0.37 78 1002.6
20180618214938 59 246 3.0 11.0 0.12 1.85 0.37 78 1002.8
20180618213401 59 213 4.0 13.0 0.04 1.77 0.35 78 1003.3
20180618211859 59 227 6.0 14.0 0.04 1.77 0.35 77 1003.4
20180618210348 59 264 5.0 15.0 0.04 1.77 0.35 77 1003.4
20180618204859 58 228 3.0 14.0 0.00 1.73 0.35 77 1003.7
20180618203401 58 225 3.0 8.0 0.00 1.73 0.35 77 1003.9
20180618201857 58 222 4.0 12.0 0.04 1.73 0.35 77 1004.3
20180618200400 57 223 5.0 11.0 0.31 1.73 0.35 77 1004.7
20180618194856 57 227 5.0 12.0 0.55 1.73 0.35 77 1005.1
20180618193342 57 223 7.0 13.0 0.83 1.73 0.35 77 1005.5
20180618191859 57 203 6.0 12.0 0.91 1.69 0.34 77 1005.7
20180618190402 57 215 6.0 16.0 0.75 1.42 0.28 77 1006.0
20180618184856 57 222 8.0 14.0 0.75 1.18 0.24 77 1006.3
20180618183402 57 233 7.0 14.0 0.55 0.91 0.18 77 1006.6
20180618181857 57 182 6.0 14.0 0.47 0.79 0.16 78 1006.8
20180618174857 56 222 7.0 13.0 0.20 0.43 0.09 78 1008.0
20180618173407 56 219 5.0 16.0 0.12 0.31 0.07 79 1008.3
20180618171847 56 215 6.0 15.0 0.16 0.31 0.06 79 1008.8
20180618170350 56 234 6.0 14.0 0.12 0.28 0.06 79 1009.2
20180618164848 56 228 7.0 12.0 0.12 0.24 0.05 80 1009.6
20180618163346 56 219 5.0 10.0 0.08 0.20 0.04 81 1009.9
20180618161848 56 217 7.0 12.0 0.04 0.16 0.03 81 1010.0
20180618160359 56 242 7.0 14.0 0.04 0.16 0.03 82 1010.1
20180618154906 57 194 7.0 14.0 0.00 0.12 0.02 82 1010.3
20180618153346 57 215 6.0 15.0 0.00 0.12 0.02 82 1010.5
20180618151904 57 223 7.0 12.0 0.00 0.12 0.02 82 1010.8
20180618150354 56 228 6.0 17.0 0.00 0.12 0.02 82 1011.0
20180618144851 56 193 7.0 14.0 0.00 0.12 0.02 82 1011.3
20180618143342 56 235 6.0 13.0 0.00 0.12 0.02 82 1011.6
20180618141855 56 208 7.0 15.0 0.00 0.12 0.02 82 1011.9
20180618140346 55 206 6.0 14.0 0.00 0.12 0.02 82 1012.2
20180618134842 55 213 6.0 13.0 0.00 0.12 0.02 82 1012.5
20180618133400 55 258 6.0 12.0 0.00 0.12 0.02 83 1012.7
20180618131854 55 243 6.0 16.0 0.00 0.12 0.02 82 1012.9
20180618130346 55 193 6.0 14.0 0.00 0.12 0.02 82 1013.2
20180618124901 54 217 8.0 17.0 0.00 0.12 0.02 82 1013.5
20180618123353 54 229 6.0 13.0 0.00 0.12 0.02 81 1013.8
20180618121850 54 224 7.0 14.0 0.00 0.12 0.02 80 1014.0